Skip Page Navigation
NASA JPL Caltech
NASA Logo - Jet Propulsion Laboratory + View the NASA Portal
+ Center for Near-Earth Object Studies
JPL Home Earth Solar System Stars & Galaxies Technology
JPL Solar System Dynamics
BODIES ORBITS EPHEMERIDES TOOLS PHYSICAL DATA DISCOVERY FAQ SITE MAP
JPL Small-Body Database Browser
Search: [ help ]  
(2019 UN12)
Classification: Apollo [NEO, PHA]          SPK-ID: 3888754
Ephemeris | Orbit Diagram | Orbital Elements | Mission Design | Physical Parameters | Close-Approach Data ]

[ show orbit diagram ]
Orbital Elements at Epoch 2459000.5 (2020-May-31.0) TDB
Reference: JPL 20 (heliocentric ecliptic J2000)
 Element Value Uncertainty (1-sigma)   Units 
e .84189314491376 2.7224e-06  
a 2.268456517469968 2.9922e-05 au
q .3586585258770609 1.479e-06 au
i 4.962243324864645 2.3897e-05 deg
node 226.3733037696549 2.0794e-05 deg
peri 297.8378751862492 4.7163e-05 deg
M 45.40679840022447 0.00086422 deg
tp 2458843.097184734001
(2019-Dec-25.59718473)
0.00011881 TDB
period 1247.941178241707
3.42
0.024691
6.76e-05
d
yr
n .2884751351079092 5.7076e-06 deg/d
Q 4.178254509062874 5.5112e-05 au
  Orbit Determination Parameters
   # obs. used (total)      103  
   # delay obs. used      1  
   # Doppler obs. used      1  
   data-arc span      21 days  
   first obs. used      2019-10-23  
   last obs. used      2019-11-13  
   planetary ephem.      DE431  
   SB-pert. ephem.      SB431-N16  
   condition code      4  
   norm. resid. RMS      .28143  
   source      ORB  
   producer      Otto Matic  
   solution date      2020-Oct-12 07:25:36  

Additional Information
 Earth MOID = .00682058 au 
 Jupiter MOID = .917247 au 
 T_jup = 3.004 
[ show covariance matrix ]

Ephemeris | Orbit Diagram | Orbital Elements | Mission Design | Physical Parameters | Close-Approach Data ]

Physical Parameter Table
Parameter Symbol Value Units Sigma Reference Notes
absolute magnitude H 22.0   .34168 E2019-VI7 autocmod 2.8

[ hide close-approach data ]
Close-Approach Data   ...sorted by Date/Time (TDB)
Date/Time (TDB) Time Uncertainty
(days_HH:MM)
Body Nominal Distance (au) Minimum Distance (au) Maximum Distance (au) V-relative (km/s) V-infinity (km/s) JD (TDB) Time Uncertainty (minutes) Semi-major axis (km) Semi-minor axis (km) range-LOV angle (deg) N-sigma BP Orbit Ref. Reference Modified
1903-Oct-20 05:58 01:33 Earth 0.435308195400735 0.433947364116979 0.436669034050258 42.768992435687 42.7688493200063 2416407.748393182 92.7775155291913 67918.0592862209 9.4414050194824 -2.38568331008633 279840.454119429 T 20 CATAB v2.0f-lin.ifort 2020-Oct-12 07:25:39 2020-Oct-12 07:26
1903-Oct-29 18:59 01:47 Venus 0.0348708549018348 0.0333161516675238 0.0364426089039119 33.4681312526186 33.4662705071915 2416417.290825984 106.658463437145 86920.8730477675 12.507982687811 -26.2298537938418 181195.31044452 T 20 CATAB v2.0f-lin.ifort 2020-Oct-12 07:25:39 2020-Oct-12 07:26
1913-Nov-25 22:51 01:25 Earth 0.327145138437759 0.326133036440861 0.328157279383206 19.5787221667978 19.5783061679227 2420097.451816414 84.5394112050461 50783.329293143 16.335041418208 6.35315287111657 365498.911749182 T 20 CATAB v2.0f-lin.ifort 2020-Oct-12 07:25:39 2020-Oct-12 07:26
1915-May-26 12:51 00:25 Jupiter 1.1171213790585 1.11702542359333 1.11721733708796 9.07105414464169 8.98707881038398 2420644.035105994 25.1283870995703 5486.47142727768 206.461411664808 -31.2299828624422 234260.685494074 T 20 CATAB v2.0f-lin.ifort 2020-Oct-12 07:25:39 2020-Oct-12 07:26
1917-May-10 02:09 00:50 Venus 0.105519500613895 0.104646380256553 0.106392644073412 36.4982969721612 36.4977331177628 2421358.589635725 49.5391052060844 43609.114954495 13.3235804041505 -3.24058267613767 65873.5808206766 T 20 CATAB v2.0f-lin.ifort 2020-Oct-12 07:25:39 2020-Oct-12 07:26
1917-Jul-14 05:10 00:45 Earth 0.287747780754159 0.287231343577319 0.288264259307734 37.4478389150574 37.4475916429969 2421423.715469694 45.3060768828115 26322.1827149338 29.3549210122389 -11.9307206227671 296699.305504662 T 20 CATAB v2.0f-lin.ifort 2020-Oct-12 07:25:39 2020-Oct-12 07:26
1924-Feb-25 20:37 00:12 Venus 0.126654902095406 0.126451525872184 0.126858278418664 25.3711745508202 25.3704987602104 2423841.358760556 12.3558936263769 10143.1059426128 101.313126381271 0.969024688490676 3713.27829917892 T 20 CATAB v2.0f-lin.ifort 2020-Oct-12 07:25:39 2020-Oct-12 07:26
1930-Nov-22 03:36 00:37 Earth 0.233422670401883 0.233009249876786 0.23383609938679 22.1267822503164 22.1262663614866 2426302.650309222 36.9171196419953 20734.5744447511 60.3900151321503 6.12641798730907 64259.9584259623 T 20 CATAB v2.0f-lin.ifort 2020-Oct-12 07:25:39 2020-Oct-12 07:26
1934-May-25 23:47 01:15 Mercury 0.0955612126485769 0.0946377356929034 0.0964944274082171 33.0036269415045 33.0035802453454 2427583.490681486 74.559460451089 66760.9619368792 34.6119793502973 46.0964888700709 303871.08507397 T 20 CATAB v2.0f-lin.ifort 2020-Oct-12 07:25:39 2020-Oct-12 07:26
1934-Jul-09 09:30 00:49 Earth 0.175383267425986 0.1745886086308 0.176178293195203 34.0540642627024 34.0536181361282 2427627.895686175 49.491226938367 41605.5521768204 31.4047499869006 -17.7025171317819 250519.244470981 T 20 CATAB v2.0f-lin.ifort 2020-Oct-12 07:25:39 2020-Oct-12 07:26
1937-Oct-30 18:21 02:56 Mercury 0.0239724089436059 0.0230096585559628 0.0249533434394781 25.1425545142273 25.1423101682428 2428837.264594125 175.812334597596 58589.4884269635 92.6092444862361 -34.1615537956538 21832.2156798828 T 20 CATAB v2.0f-lin.ifort 2020-Oct-12 07:25:39 2020-Oct-12 07:26
1939-Feb-22 05:58 00:06 Jupiter 1.17009498341673 1.16983267029041 1.1703573431558 9.32551529481923 9.24756461518862 2429316.748533614 5.94908259431619 17547.6605514832 196.882408468986 -42.3217151738494 467765.287062461 T 20 CATAB v2.0f-lin.ifort 2020-Oct-12 07:25:39 2020-Oct-12 07:26
1954-Nov-27 08:09 09:26 Mercury 0.0622335375361129 0.0613675557738346 0.0631079541494546 21.1927703111428 21.192658647164 2435073.839276645 565.928896130896 56465.3721879589 105.360422654007 39.7765187280345 56181.0221464474 T 20 CATAB v2.0f-lin.ifort 2020-Oct-12 07:25:39 2020-Oct-12 07:26
1958-May-30 17:20 10:57 Earth 0.433118799140292 0.431266060062275 0.434971634468121 16.6938730681915 16.6935045550253 2436354.222162908 656.748834205667 92950.3169270234 44.0411283849779 -6.28710330644114 165961.136678839 T 20 CATAB v2.0f-lin.ifort 2020-Oct-12 07:25:39 2020-Oct-12 07:26
1961-Aug-24 22:33 02:21 Venus 0.131459606422137 0.129219748899779 0.133699546625414 37.5272045699534 37.5267643872733 2437536.439498080 140.527728392367 111815.624433225 16.1209774139817 2.66951642438472 55881.9677017462 T 20 CATAB v2.0f-lin.ifort 2020-Oct-12 07:25:39 2020-Oct-12 07:26
1962-Dec-03 13:01 00:58 Jupiter 1.43902782991994 1.43844371029628 1.43961203662268 10.5895896832105 10.5338594417621 2438002.042147128 57.6497605875809 34085.0228851902 201.920385665393 -31.8046186987014 408537.152208194 T 20 CATAB v2.0f-lin.ifort 2020-Oct-12 07:25:39 2020-Oct-12 07:26
1971-Nov-25 10:38 02:03 Earth 0.235180415834806 0.233689032802446 0.236671800239706 21.4809760334455 21.4804486062445 2441280.942878325 122.859050705007 74374.6727250021 10.1732452912769 0.606645348805838 38474.1401283224 T 20 CATAB v2.0f-lin.ifort 2020-Oct-12 07:25:39 2020-Oct-12 07:26
1975-Jul-11 10:17 01:48 Venus 0.0325825799842725 0.0323971722024251 0.0328500357296325 30.7851736117249 30.783008615518 2442604.928141020 108.426203550482 82339.2543522872 31.1999673889654 82.1078043046098 153314.066012279 T 20 CATAB v2.0f-lin.ifort 2020-Oct-12 07:25:39 2020-Oct-12 07:26
1975-Jul-22 09:20 01:26 Earth 0.450225139172726 0.448967025029208 0.451483389550365 42.2420635026703 42.2419234026459 2442615.889065816 86.4695181713505 63944.3916242174 40.6177366553893 -11.1363841287942 314718.569035528 T 20 CATAB v2.0f-lin.ifort 2020-Oct-12 07:25:39 2020-Oct-12 07:26
1982-May-15 09:52 14:17 Earth 0.481124489988791 0.478922519016976 0.483326527529486 18.981591231358 18.9812994714495 2445104.911283987 857.270854639579 110167.10564848 47.0864024001314 4.68655699502883 86196.5005113048 T 20 CATAB v2.0f-lin.ifort 2020-Oct-12 07:25:39 2020-Oct-12 07:26
1985-Aug-23 22:04 05:02 Venus 0.103334390216501 0.0985282079132125 0.108143417257672 35.947941838568 35.9473572456288 2446301.419372336 301.919893765098 241255.543633854 12.5689977222619 6.42978035291585 136153.260446693 T 20 CATAB v2.0f-lin.ifort 2020-Oct-12 07:25:39 2020-Oct-12 07:26
1985-Sep-18 22:51 19:21 Mercury 0.06878790482744 0.0679614136865135 0.0698991265749462 21.6651031004755 21.665004278775 2446327.451896732 1161.16447567857 226025.75206635 20.1417604180067 77.6320096684721 479782.772488702 T 20 CATAB v2.0f-lin.ifort 2020-Oct-12 07:25:39 2020-Oct-12 07:26
1986-Oct-11 08:43 02:57 Jupiter 1.88653558973961 1.88528488141473 1.88778646793551 12.5918592921536 12.5561520506814 2446714.862935879 176.926296540762 68479.1775279159 207.66475398236 -24.8706674139655 375820.139340874 T 20 CATAB v2.0f-lin.ifort 2020-Oct-12 07:25:39 2020-Oct-12 07:26
1995-Nov-26 01:57 07:38 Earth 0.240499410537155 0.234828901700281 0.246169929123544 21.2989329360851 21.2984127654906 2450047.580981439 457.810940917244 282775.902327692 8.82791139933731 -0.360448639666879 26937.8794381884 T 20 CATAB v2.0f-lin.ifort 2020-Oct-12 07:25:39 2020-Oct-12 07:26
1998-May-03 17:04 03:54 Jupiter 1.60066534580322 1.59904260593746 1.60228810383096 11.0184116168472 10.9702806032479 2450937.211099334 233.875193354548 81366.6114482291 177.660350761908 -8.49601711945342 125440.584072026 T 20 CATAB v2.0f-lin.ifort 2020-Oct-12 07:25:39 2020-Oct-12 07:26
1999-Jun-26 17:47 18:07 Mercury 0.0197835365722448 0.0146795604046487 0.0255229211699041 24.259323694803 24.2590168319621 2451356.240873964 1086.50135015494 323423.479455984 51.0876773899016 -31.8590108288985 30656.6236567668 T 20 CATAB v2.0f-lin.ifort 2020-Oct-12 07:25:39 2020-Oct-12 07:26
